Lid_Strength_Index
2 2 2 2 2 2 2 2 2 2 2 2 2 2 2 2 2 5 8 5 1 -0 -0 2 2 2 3 5 4 4 11 13 12 11 10 7 8 6 4 6 5 4 5 4 2
2 2 2 2 2 2 2 2 2 2 2 2 2 2 2 2 4 7 2 -3 -1 -1 2 3 5 4 6 7 6 8 11 11 8 8 9 7 7 7 7 7 7 6 4 3 3
2 2 2 2 2 2 2 2 2 2 2 2 2 2 1 2 9 7 -3 -1 -1 -1 1 2 3 5 8 7 7 8 11 8 7 6 6 7 7 6 8 9 7 7 6 4 4
2 2 2 2 2 2 2 2 2 2 2 2 2 1 1 4 12 4 -1 -1 -1 0 2 3 5 8 9 9 7 10 7 7 6 6 6 8 6 7 7 7 5 5 4 4 4
2 2 2 2 2 2 2 2 3 3 2 2 2 1 4 11 10 0 -1 -0 0 1 4 7 7 7 9 8 7 9 7 6 5 5 6 6 7 7 7 5 4 4 4 5 4
2 2 2 2 2 2 2 2 2 2 2 2 1 1 7 13 7 0 0 1 1 2 4 7 7 6 7 7 8 7 6 6 6 6 6 8 7 7 6 5 5 5 5 5 4
2 2 2 2 2 2 2 3 3 3 2 2 1 2 9 9 2 3 1 2 4 3 7 7 7 7 7 9 5 6 8 8 7 6 7 6 9 9 6 5 6 6 5 5 4
2 2 2 3 3 3 3 3 3 2 2 2 1 5 10 7 5 5 7 8 4 3 5 6 5 7 8 7 7 8 8 12 8 7 7 7 13 8 6 6 7 6 6 5 4
2 2 3 3 3 3 4 4 3 1 1 0 6 8 10 4 6 6 5 7 8 8 7 5 6 9 9 11 12 10 13 12 10 7 8 8 11 8 6 6 7 6 6 5 5
3 3 3 3 4 4 4 4 3 2 1 1 3 10 9 9 7 5 7 6 8 9 9 9 10 12 13 12 15 13 12 11 12 9 8 10 10 8 7 7 7 6 6 5 5
3 3 3 3 4 5 6 7 8 8 7 9 9 9 7 6 5 6 7 8 9 10 13 11 12 13 13 11 11 11 11 11 10 8 9 11 10 9 7 7 7 7 6 6 5
3 3 3 4 4 5 6 7 7 7 9 7 7 7 7 6 7 7 8 10 11 12 12 12 13 13 11 11 11 10 12 12 10 9 10 11 11 9 8 8 7 7 6 6 5
3 3 4 5 5 6 7 7 5 7 11 9 8 8 8 6 8 8 9 10 11 12 11 12 12 10 11 12 12 13 12 12 12 10 10 11 12 11 8 7 7 7 6 5 5
3 3 4 5 8 7 7 6 5 6 14 12 10 8 7 7 9 6 8 9 11 11 11 11 11 11 12 13 13 15 10 9 11 13 16 11 17 12 11 10 8 7 7 6 5
3 3 4 5 8 9 7 6 6 9 18 9 10 7 8 10 11 9 8 9 11 11 11 11 12 13 13 13 12 13 8 10 11 13 14 13 16 13 11 12 10 8 7 6 5
3 4 4 6 8 6 6 6 8 14 18 11 10 11 11 11 10 10 10 9 10 11 12 11 11 12 12 12 11 7 9 12 12 13 17 15 15 14 12 10 9 7 7 6 5
4 5 6 5 8 6 5 8 14 16 11 11 12 11 12 12 11 11 11 12 13 15 14 12 12 13 12 14 12 10 14 16 18 18 19 16 16 13 9 8 8 7 7 6 5
5 6 6 6 6 5 9 11 17 12 11 10 11 12 13 12 12 12 12 13 13 14 16 15 15 12 12 13 13 11 12 16 18 18 16 15 17 12 8 7 6 6 6 6 5
5 7 7 6 5 6 11 15 16 12 10 11 12 13 12 11 12 13 13 13 12 12 14 16 15 11 11 12 12 15 15 14 15 17 17 15 13 9 8 8 7 7 6 6 6
6 7 6 4 5 9 13 15 14 10 10 11 14 13 14 12 12 13 13 12 12 12 12 13 15 13 11 11 12 14 12 14 15 19 20 16 16 14 11 9 8 8 7 6 6
8 8 6 4 7 10 14 14 11 8 8 11 13 12 13 13 13 13 13 11 12 12 13 15 14 13 12 13 13 13 14 14 14 14 16 17 14 10 10 8 8 8 7 6 7
9 10 5 6 9 12 12 11 9 9 8 9 11 11 12 12 13 14 12 11 9 12 14 13 15 15 13 12 12 13 14 14 16 17 15 15 13 9 8 8 7 7 7 6 6
9 10 5 6 11 12 10 9 9 9 9 10 11 11 11 12 14 12 11 8 8 9 13 13 16 16 14 14 14 14 14 15 15 15 16 16 13 9 8 7 7 7 6 6 5
9 10 7 7 9 10 11 10 10 7 8 9 10 10 12 13 13 13 11 9 7 7 5 10 16 15 15 14 14 14 13 13 15 16 16 13 12 10 8 8 7 7 6 6 6
9 10 8 11 10 10 11 9 10 10 8 8 9 9 10 14 14 13 11 9 8 6 9 13 15 14 15 13 11 12 12 13 15 15 15 14 13 11 10 9 8 7 6 6 6
9 9 8 10 9 10 10 12 10 9 9 10 10 8 9 11 11 12 10 10 11 9 10 11 13 12 14 11 11 13 12 11 12 12 12 12 11 9 8 7 7 7 5 6 6
8 8 8 10 10 11 11 10 9 8 8 7 8 9 9 8 7 8 8 9 10 10 11 11 13 14 15 12 12 13 13 12 12 11 12 14 10 8 9 8 7 7 6 6 5